#timestamp,LO_Frequency,Hit,StdDev 
1459821615.4,286046998.1,N
1459821635.2,286046999.1,N
1459821655.1,286047000.3,N
1459821656.0,286047000.3,N
1459821675.8,286047000.7,N
1459821695.6,286047001.2,N
1459821715.5,286047001.2,N
1459821735.3,286046997.3,N
1459821755.1,286046999.2,N
1459821775.9,286046998.5,N
1459821795.7,286046999.1,N
1459821815.5,286046999.3,N
1459821835.4,286046999.3,N
1459821855.2,286046999.0,N
1459821875.0,286047000.4,N
1459821875.9,286047000.4,N
1459821895.8,286046999.2,N
1459821915.6,286046999.0,N
1459821935.4,286046997.4,N
1459821955.3,286046993.6,Y
1459821975.1,286046998.8,P
1459821976.0,286046998.8,P
1459821995.8,286046999.9,N
1459822015.7,286047001.1,N
1459822035.5,286046996.6,Y
1459822055.3,286046996.9,P
1459822075.2,286046996.7,N
1459822095.9,286046998.6,N
1459822115.7,286046998.9,N
1459822135.5,286046998.3,N
1459822155.4,286047000.7,N
1459822175.2,286046999.7,N
1459822195.0,286047001.0,N
1459822195.9,286047001.0,N
1459822215.8,286046999.5,N
1459822235.6,286046997.4,N
1459822255.4,286046999.0,N
1459822275.3,286046998.5,N
1459822295.1,286047002.8,N
1459822296.0,286047002.8,N
1459822315.8,286047002.3,N
1459822335.7,286047000.0,N
1459822355.5,286047002.7,N
1459822375.3,286047002.1,N
1459822395.2,286047000.4,N
1459822415.9,286046998.5,N
1459822435.7,286047001.2,N
1459822455.5,286047000.4,N
1459822475.4,286047001.7,N
1459822495.2,286047002.4,N
1459822515.0,286047001.7,N
1459822515.9,286047001.7,N
1459822535.8,286047002.1,N
1459822555.6,286047002.2,N
1459822575.4,286047002.8,N
1459822595.3,286046999.9,N
1459822615.1,286047002.3,N
1459822635.8,286047000.7,N
1459822655.7,286047000.2,N
1459822675.5,286047001.9,N
1459822695.3,286047001.5,N
1459822715.2,286047002.3,N
1459822735.9,286047000.2,N
1459822755.7,286047001.4,N
1459822775.6,286047005.9,Y
1459822795.4,286047003.0,P
1459822815.2,286047003.7,P
1459822835.1,286047004.3,P
1459822836.0,286047004.3,Y
1459822855.8,286046998.8,P
1459822875.6,286046996.9,N
1459822895.5,286046998.6,N
1459822915.3,286046999.9,N
1459822935.1,286047002.0,N
1459822955.9,286047002.1,N
1459822975.7,286047002.4,N
1459822995.5,286047002.8,N
1459823015.3,286046998.6,N
1459823035.2,286046999.3,N
1459823055.0,286047000.5,N
1459823055.9,286047000.5,N
1459823075.7,286046997.0,N
1459823095.6,286046997.6,N
1459823115.4,286046997.4,N
1459823135.2,286046997.2,N
1459823155.1,286046997.3,N
1459823156.0,286046997.3,N
1459823175.8,286046997.8,N
1459823195.6,286046995.7,N
1459823215.5,286046994.9,N
1459823235.3,286046997.4,N
1459823255.1,286046997.7,N
1459823275.9,286046998.0,N
1459823295.7,286046997.9,N
1459823315.5,286046997.6,N
1459823335.3,286046995.2,N
1459823355.2,286046997.6,N
1459823375.0,286046997.0,N
1459823375.9,286046997.0,N
1459823395.7,286046997.1,N
1459823415.6,286046999.0,N
1459823435.4,286046996.8,N
1459823455.2,286046995.2,N
1459823475.1,286046997.5,N
1459823476.0,286046997.5,N
1459823495.8,286046999.1,N
1459823515.6,286046996.9,N
1459823535.5,286046996.8,N
1459823555.3,286046997.1,N
1459823575.1,286046997.7,N
1459823595.9,286046996.8,N
1459823615.7,286046995.5,Y
1459823635.5,286046999.9,P
1459823655.4,286047003.8,N
1459823675.2,286047001.3,N
1459823695.0,286047000.8,N
1459823695.9,286047000.8,N
1459823715.8,286047000.8,N
1459823735.6,286046999.8,N
1459823755.4,286046998.4,N
1459823775.2,286046998.7,N
1459823795.1,286046997.4,N
1459823796.0,286046997.4,N
1459823815.8,286046995.8,N
1459823835.6,286046995.7,N
1459823855.5,286046995.2,N
1459823875.3,286046995.3,N
1459823895.1,286046995.6,N
1459823915.9,286046997.6,N
1459823935.7,286046995.4,N
1459823955.5,286046995.6,N
1459823975.4,286046995.2,N
1459823995.2,286046998.0,N
1459824015.0,286046995.0,N
1459824015.9,286046995.0,N
1459824035.8,286046996.1,N
1459824055.6,286046995.8,N
1459824075.4,286046995.3,N
1459824095.3,286046997.8,N
1459824115.1,286046994.9,N
1459824116.0,286046994.9,N
1459824135.8,286046997.1,N
1459824155.7,286046997.1,N
1459824175.5,286046995.4,N
1459824195.3,286046997.4,N
1459824215.1,286046996.6,N
1459824235.9,286046997.5,N
1459824255.7,286047000.0,N
1459824275.5,286046998.5,N
1459824295.4,286046998.8,N
1459824315.2,286047001.0,N
1459824335.0,286046999.4,N
1459824335.9,286046999.4,N
1459824355.8,286046998.5,N
1459824375.6,286046998.3,N
1459824395.4,286046997.0,N
1459824415.3,286046997.8,N
1459824435.1,286046997.8,N
1459824436.0,286046997.8,N
1459824455.8,286046998.9,N
1459824475.7,286046998.4,N
1459824495.5,286047000.4,N
1459824515.3,286046998.9,N
1459824535.2,286046999.8,N
1459824555.9,286047000.3,N
1459824575.7,286047002.0,N
1459824595.5,286046999.8,N
1459824615.4,286046999.9,N
1459824635.2,286047002.7,N
1459824655.0,286046999.7,N
1459824655.9,286046999.7,N
1459824675.8,286046999.9,N
1459824695.6,286047000.4,N
1459824715.4,286047001.8,N
1459824735.3,286047003.1,N
1459824755.1,286047003.0,N
1459824775.8,286047005.1,Y
1459824795.7,286047005.4,P
1459824815.5,286047005.3,N
1459824835.3,286047002.0,N
1459824855.2,286047003.6,N
1459824875.9,286047002.5,N
1459824895.7,286046999.7,N
1459824915.6,286047003.1,N
1459824935.4,286047004.5,N
1459824955.2,286047005.8,N
1459824975.1,286047003.1,N
1459824976.0,286047003.1,N
1459824995.8,286047005.8,N
1459825015.6,286047003.4,N
1459825035.4,286047005.2,N
1459825055.3,286047004.9,N
1459825075.1,286047005.6,N
1459825095.8,286047001.5,N
1459825115.7,286047003.7,N
1459825135.5,286047002.1,N
1459825155.3,286047002.5,N
1459825175.2,286047006.0,Y
1459825195.9,286047002.8,P
